QPF
0.00 0.01 0.03 0.03 0.04 0.05 0.03 0.03 0.03 0.02 0.02 0.02 0.03 0.02 0.04 0.05 0.07 0.10 0.10 0.09 0.08 0.09 0.10 0.11 0.14 0.18 0.21 0.20 0.23 0.25 0.21 0.16 0.11 0.09 0.06 0.03 0.03 0.03 0.02 0.02 0.01 0.01 0.01
0.00 0.00 0.01 0.04 0.07 0.05 0.04 0.06 0.06 0.05 0.05 0.05 0.04 0.07 0.08 0.10 0.12 0.12 0.12 0.10 0.07 0.07 0.08 0.09 0.11 0.14 0.17 0.20 0.19 0.17 0.14 0.12 0.10 0.08 0.07 0.05 0.03 0.02 0.02 0.01 0.01 0.01 0.01
0.00 0.00 0.01 0.02 0.06 0.07 0.06 0.09 0.13 0.12 0.10 0.08 0.08 0.09 0.09 0.13 0.13 0.10 0.09 0.08 0.06 0.06 0.08 0.08 0.08 0.10 0.12 0.13 0.11 0.10 0.09 0.07 0.05 0.05 0.05 0.05 0.04 0.02 0.01 0.01 0.01 0.01 0.01
0.00 0.00 0.00 0.02 0.06 0.08 0.07 0.07 0.13 0.16 0.12 0.11 0.12 0.11 0.10 0.12 0.11 0.09 0.09 0.09 0.08 0.09 0.07 0.06 0.06 0.07 0.07 0.07 0.07 0.06 0.04 0.04 0.04 0.03 0.03 0.03 0.02 0.02 0.01 0.01 0.01 0.01 0.01
0.00 0.00 0.00 0.01 0.04 0.08 0.07 0.05 0.09 0.10 0.12 0.13 0.14 0.14 0.15 0.15 0.12 0.10 0.10 0.08 0.06 0.04 0.04 0.04 0.04 0.04 0.04 0.04 0.03 0.03 0.02 0.02 0.03 0.02 0.02 0.02 0.02 0.02 0.02 0.01 0.01 0.00 0.00
0.00 0.00 0.00 0.01 0.02 0.05 0.07 0.05 0.07 0.09 0.11 0.13 0.15 0.17 0.16 0.15 0.13 0.11 0.09 0.07 0.05 0.03 0.02 0.02 0.01 0.01 0.02 0.03 0.03 0.03 0.03 0.02 0.02 0.02 0.02 0.02 0.02 0.02 0.02 0.02 0.01 0.01 0.00
0.01 0.01 0.01 0.01 0.02 0.02 0.03 0.05 0.06 0.08 0.11 0.13 0.16 0.17 0.18 0.17 0.15 0.14 0.11 0.08 0.04 0.02 0.01 0.01 0.01 0.01 0.02 0.02 0.02 0.02 0.02 0.03 0.03 0.03 0.03 0.02 0.02 0.02 0.02 0.01 0.01 0.00 0.00
0.01 0.01 0.01 0.01 0.02 0.02 0.03 0.04 0.05 0.07 0.11 0.14 0.15 0.18 0.18 0.16 0.14 0.11 0.08 0.07 0.04 0.02 0.01 0.00 0.00 0.00 0.00 0.00 0.01 0.01 0.01 0.01 0.01 0.01 0.01 0.01 0.01 0.01 0.01 0.01 0.01 0.01 0.01
0.01 0.01 0.02 0.02 0.02 0.02 0.03 0.03 0.04 0.06 0.08 0.10 0.13 0.15 0.14 0.13 0.12 0.09 0.07 0.04 0.03 0.02 0.01 0.01 0.01 0.00 0.00 0.00 0.00 0.00 0.00 0.00 0.01 0.01 0.01 0.01 0.01 0.01 0.01 0.01 0.01 0.01 0.01
0.01 0.02 0.02 0.02 0.03 0.03 0.03 0.03 0.03 0.05 0.07 0.07 0.09 0.10 0.10 0.09 0.08 0.06 0.04 0.03 0.03 0.02 0.02 0.02 0.01 0.01 0.00 0.00 0.00 0.00 0.00 0.00 0.01 0.01 0.01 0.01 0.01 0.00 0.00 0.01 0.01 0.01 0.01
0.01 0.02 0.02 0.02 0.02 0.03 0.03 0.03 0.03 0.03 0.04 0.04 0.04 0.05 0.05 0.04 0.05 0.05 0.04 0.03 0.02 0.02 0.02 0.01 0.01 0.01 0.00 0.00 0.00 0.00 0.00 0.00 0.01 0.00 0.00 0.00 0.00 0.00 0.00 0.01 0.01 0.01 0.01
0.02 0.02 0.02 0.02 0.02 0.02 0.02 0.02 0.02 0.02 0.02 0.02 0.02 0.02 0.01 0.01 0.01 0.01 0.01 0.01 0.01 0.01 0.01 0.01 0.00 0.00 0.00 0.00 0.00 0.00 0.00 0.00 0.00 0.00 0.00 0.00 0.00 0.01 0.01 0.01 0.01 0.01 0.01
0.04 0.03 0.02 0.02 0.02 0.02 0.01 0.01 0.01 0.01 0.01 0.01 0.01 0.01 0.01 0.00 0.00 0.00 0.01 0.00 0.00 0.00 0.00 0.00 0.00 0.00 0.00 0.00 0.00 0.00 0.00 0.00 0.00 0.00 0.00 0.00 0.01 0.01 0.01 0.01 0.01 0.01 0.01
0.05 0.04 0.03 0.03 0.02 0.01 0.01 0.01 0.01 0.01 0.01 0.00 0.00 0.00 0.00 0.00 0.00 0.00 0.00 0.00 0.00 0.00 0.00 0.00 0.00 0.00 0.00 0.00 0.00 0.00 0.00 0.00 0.00 0.00 0.01 0.01 0.01 0.01 0.01 0.01 0.01 0.01 0.02
0.07 0.05 0.04 0.03 0.02 0.02 0.02 0.02 0.01 0.01 0.01 0.01 0.01 0.01 0.00 0.00 0.00 0.00 0.00 0.00 0.00 0.00 0.00 0.00 0.00 0.00 0.00 0.00 0.00 0.00 0.00 0.00 0.00 0.01 0.01 0.01 0.01 0.00 0.00 0.00 0.01 0.01 0.02
0.09 0.07 0.05 0.04 0.03 0.03 0.03 0.02 0.02 0.02 0.01 0.01 0.01 0.01 0.01 0.01 0.01 0.01 0.01 0.01 0.01 0.01 0.01 0.01 0.00 0.01 0.00 0.00 0.00 0.00 0.00 0.00 0.01 0.01 0.02 0.02 0.01 0.01 0.01 0.01 0.00 0.01 0.01
0.15 0.13 0.10 0.08 0.06 0.05 0.04 0.03 0.02 0.02 0.01 0.01 0.01 0.01 0.01 0.01 0.01 0.01 0.01 0.01 0.01 0.01 0.01 0.01 0.01 0.01 0.00 0.00 0.00 0.00 0.00 0.01 0.02 0.02 0.03 0.02 0.02 0.02 0.03 0.02 0.01 0.02 0.02
0.19 0.15 0.11 0.09 0.07 0.05 0.04 0.03 0.03 0.03 0.02 0.02 0.02 0.01 0.01 0.01 0.01 0.01 0.02 0.02 0.02 0.02 0.02 0.01 0.01 0.02 0.01 0.00 0.00 0.00 0.00 0.01 0.02 0.03 0.03 0.04 0.04 0.03 0.01 0.00 0.01 0.03 0.06
0.12 0.11 0.10 0.08 0.06 0.05 0.05 0.05 0.04 0.03 0.02 0.02 0.01 0.01 0.01 0.01 0.01 0.02 0.02 0.02 0.02 0.02 0.01 0.01 0.01 0.02 0.02 0.00 0.00 0.00 0.00 0.01 0.02 0.02 0.03 0.03 0.04 0.01 0.00 0.00 0.02 0.04 0.06
0.10 0.08 0.07 0.07 0.06 0.05 0.04 0.03 0.02 0.02 0.01 0.01 0.01 0.01 0.01 0.01 0.02 0.02 0.02 0.02 0.02 0.02 0.01 0.01 0.01 0.03 0.02 0.00 0.00 0.00 0.00 0.01 0.01 0.02 0.04 0.03 0.01 0.00 0.00 0.00 0.02 0.04 0.04
0.08 0.06 0.06 0.05 0.04 0.04 0.03 0.03 0.02 0.02 0.01 0.01 0.01 0.01 0.01 0.01 0.01 0.02 0.02 0.02 0.03 0.03 0.03 0.03 0.03 0.03 0.02 0.00 0.00 0.00 0.00 0.00 0.01 0.02 0.05 0.05 0.00 0.00 0.00 0.00 0.02 0.02 0.01
0.05 0.05 0.04 0.04 0.03 0.03 0.03 0.03 0.03 0.02 0.01 0.01 0.01 0.01 0.01 0.01 0.01 0.03 0.04 0.04 0.05 0.05 0.04 0.04 0.03 0.02 0.02 0.01 0.00 0.00 0.00 0.00 0.01 0.03 0.04 0.03 0.00 0.00 0.00 0.00 0.01 0.00 0.01
0.04 0.04 0.03 0.03 0.02 0.02 0.03 0.03 0.03 0.02 0.02 0.03 0.02 0.02 0.01 0.01 0.02 0.03 0.04 0.04 0.05 0.05 0.03 0.03 0.02 0.02 0.02 0.02 0.00 0.00 0.00 0.00 0.01 0.03 0.02 0.00 0.00 0.01 0.03 0.02 0.01 0.02 0.05
0.03 0.03 0.03 0.03 0.02 0.02 0.02 0.02 0.02 0.02 0.03 0.04 0.03 0.02 0.03 0.03 0.03 0.03 0.03 0.03 0.03 0.02 0.02 0.02 0.02 0.02 0.02 0.02 0.00 0.00 0.00 0.00 0.01 0.02 0.02 0.02 0.02 0.03 0.04 0.05 0.07 0.08 0.08
0.03 0.03 0.03 0.03 0.02 0.02 0.01 0.01 0.01 0.01 0.03 0.03 0.03 0.02 0.02 0.03 0.04 0.05 0.02 0.01 0.01 0.00 0.00 0.01 0.01 0.01 0.01 0.00 0.00 0.00 0.00 0.00 0.00 0.01 0.03 0.05 0.05 0.04 0.05 0.07 0.08 0.08 0.07
0.02 0.03 0.03 0.02 0.01 0.01 0.00 0.00 0.00 0.01 0.02 0.03 0.03 0.02 0.01 0.02 0.03 0.06 0.04 0.01 0.00 0.00 0.00 0.00 0.00 0.00 0.00 0.00 0.00 0.00 0.00 0.00 0.00 0.01 0.03 0.04 0.03 0.02 0.03 0.04 0.04 0.05 0.05
MSLP
1003.13 1003.48 1003.86 1004.25 1004.65 1005.08 1005.57 1006.14 1006.80 1007.55 1008.36 1009.20 1010.00 1010.74 1011.39 1011.93 1012.38 1012.76 1013.11 1013.46 1013.83 1014.24 1014.70 1015.17 1015.66 1016.15 1016.62 1017.06 1017.48 1017.87 1018.24 1018.58 1018.90 1019.17 1019.40 1019.57 1019.67 1019.70 1019.67 1019.61 1019.52 1019.43 1019.37
1004.30 1004.68 1005.02 1005.30 1005.53 1005.76 1006.04 1006.42 1006.93 1007.58 1008.34 1009.17 1010.01 1010.81 1011.52 1012.14 1012.66 1013.10 1013.50 1013.90 1014.31 1014.75 1015.23 1015.72 1016.21 1016.68 1017.12 1017.52 1017.89 1018.24 1018.57 1018.90 1019.21 1019.50 1019.75 1019.94 1020.05 1020.07 1020.01 1019.88 1019.70 1019.51 1019.34
1005.95 1006.37 1006.66 1006.81 1006.85 1006.86 1006.90 1007.05 1007.38 1007.87 1008.54 1009.32 1010.16 1010.99 1011.76 1012.43 1013.02 1013.52 1013.98 1014.42 1014.88 1015.35 1015.84 1016.34 1016.81 1017.25 1017.65 1017.99 1018.30 1018.60 1018.89 1019.19 1019.50 1019.80 1020.07 1020.28 1020.41 1020.43 1020.34 1020.16 1019.91 1019.63 1019.36
1007.90 1008.36 1008.60 1008.62 1008.49 1008.27 1008.08 1008.00 1008.11 1008.44 1008.98 1009.69 1010.49 1011.32 1012.11 1012.84 1013.47 1014.03 1014.54 1015.02 1015.51 1016.00 1016.50 1016.98 1017.44 1017.83 1018.17 1018.46 1018.71 1018.94 1019.19 1019.47 1019.77 1020.08 1020.38 1020.61 1020.76 1020.79 1020.69 1020.47 1020.16 1019.81 1019.45
1009.90 1010.39 1010.59 1010.52 1010.24 1009.84 1009.43 1009.15 1009.07 1009.24 1009.66 1010.27 1011.02 1011.83 1012.62 1013.36 1014.02 1014.61 1015.15 1015.66 1016.17 1016.67 1017.16 1017.63 1018.05 1018.40 1018.69 1018.91 1019.10 1019.29 1019.50 1019.75 1020.04 1020.36 1020.67 1020.93 1021.10 1021.14 1021.03 1020.79 1020.44 1020.02 1019.58
1011.69 1012.21 1012.40 1012.27 1011.89 1011.36 1010.82 1010.39 1010.17 1010.21 1010.52 1011.05 1011.74 1012.50 1013.28 1014.01 1014.68 1015.27 1015.82 1016.33 1016.83 1017.33 1017.80 1018.24 1018.62 1018.93 1019.17 1019.34 1019.49 1019.63 1019.80 1020.02 1020.30 1020.62 1020.94 1021.21 1021.39 1021.44 1021.33 1021.07 1020.69 1020.22 1019.74
1013.09 1013.63 1013.83 1013.68 1013.26 1012.69 1012.08 1011.59 1011.30 1011.27 1011.51 1011.98 1012.62 1013.34 1014.08 1014.78 1015.42 1015.99 1016.52 1017.01 1017.49 1017.96 1018.40 1018.81 1019.15 1019.42 1019.61 1019.75 1019.85 1019.95 1020.08 1020.28 1020.53 1020.83 1021.14 1021.41 1021.59 1021.64 1021.53 1021.26 1020.87 1020.39 1019.87
1014.00 1014.57 1014.78 1014.66 1014.28 1013.73 1013.15 1012.67 1012.39 1012.36 1012.58 1013.02 1013.61 1014.29 1014.97 1015.63 1016.22 1016.75 1017.23 1017.68 1018.12 1018.54 1018.95 1019.32 1019.62 1019.86 1020.02 1020.12 1020.19 1020.25 1020.35 1020.50 1020.72 1020.98 1021.26 1021.50 1021.66 1021.70 1021.59 1021.34 1020.95 1020.48 1019.97
1014.46 1015.05 1015.30 1015.24 1014.94 1014.49 1014.02 1013.63 1013.42 1013.44 1013.68 1014.12 1014.68 1015.31 1015.94 1016.52 1017.05 1017.50 1017.92 1018.31 1018.70 1019.08 1019.44 1019.78 1020.05 1020.27 1020.41 1020.48 1020.52 1020.55 1020.60 1020.70 1020.86 1021.07 1021.29 1021.49 1021.62 1021.64 1021.53 1021.29 1020.93 1020.49 1020.01
1014.63 1015.22 1015.52 1015.54 1015.36 1015.05 1014.72 1014.48 1014.39 1014.50 1014.80 1015.24 1015.79 1016.36 1016.92 1017.43 1017.86 1018.24 1018.58 1018.91 1019.23 1019.56 1019.89 1020.19 1020.46 1020.65 1020.78 1020.84 1020.85 1020.84 1020.85 1020.89 1020.98 1021.11 1021.26 1021.40 1021.49 1021.49 1021.39 1021.17 1020.85 1020.46 1020.03
1014.72 1015.30 1015.63 1015.75 1015.69 1015.54 1015.38 1015.30 1015.35 1015.56 1015.91 1016.37 1016.89 1017.41 1017.89 1018.30 1018.64 1018.93 1019.19 1019.45 1019.72 1020.01 1020.31 1020.60 1020.85 1021.04 1021.16 1021.21 1021.20 1021.16 1021.12 1021.09 1021.11 1021.16 1021.23 1021.30 1021.34 1021.31 1021.21 1021.02 1020.75 1020.42 1020.06
1014.93 1015.49 1015.85 1016.04 1016.09 1016.09 1016.09 1016.16 1016.34 1016.63 1017.03 1017.49 1017.97 1018.41 1018.81 1019.12 1019.37 1019.57 1019.75 1019.95 1020.17 1020.43 1020.72 1021.00 1021.25 1021.45 1021.57 1021.61 1021.59 1021.52 1021.43 1021.34 1021.27 1021.24 1021.22 1021.22 1021.21 1021.17 1021.07 1020.91 1020.69 1020.42 1020.12
1015.41 1015.93 1016.30 1016.53 1016.68 1016.78 1016.91 1017.09 1017.36 1017.72 1018.13 1018.57 1018.99 1019.36 1019.66 1019.87 1020.03 1020.15 1020.27 1020.42 1020.61 1020.85 1021.12 1021.41 1021.67 1021.87 1022.00 1022.04 1022.01 1021.91 1021.77 1021.62 1021.48 1021.37 1021.29 1021.22 1021.16 1021.09 1020.99 1020.85 1020.67 1020.46 1020.21
1016.20 1016.67 1017.02 1017.27 1017.46 1017.64 1017.84 1018.10 1018.42 1018.79 1019.19 1019.58 1019.93 1020.21 1020.41 1020.54 1020.62 1020.67 1020.74 1020.86 1021.03 1021.26 1021.53 1021.81 1022.08 1022.29 1022.42 1022.46 1022.42 1022.29 1022.12 1021.92 1021.73 1021.55 1021.41 1021.29 1021.19 1021.09 1020.99 1020.86 1020.70 1020.52 1020.29
1017.23 1017.64 1017.95 1018.19 1018.39 1018.60 1018.83 1019.12 1019.44 1019.80 1020.15 1020.48 1020.75 1020.95 1021.06 1021.12 1021.13 1021.14 1021.17 1021.26 1021.42 1021.65 1021.91 1022.20 1022.46 1022.68 1022.81 1022.84 1022.78 1022.64 1022.44 1022.21 1021.97 1021.75 1021.56 1021.39 1021.26 1021.14 1021.02 1020.89 1020.74 1020.55 1020.33
1018.36 1018.71 1018.97 1019.18 1019.37 1019.57 1019.80 1020.07 1020.38 1020.69 1020.98 1021.24 1021.43 1021.55 1021.60 1021.59 1021.56 1021.54 1021.56 1021.64 1021.79 1022.00 1022.26 1022.54 1022.79 1022.99 1023.11 1023.13 1023.06 1022.91 1022.69 1022.44 1022.18 1021.92 1021.70 1021.50 1021.33 1021.18 1021.04 1020.89 1020.72 1020.52 1020.28
1019.46 1019.74 1019.94 1020.11 1020.27 1020.45 1020.65 1020.89 1021.15 1021.41 1021.64 1021.83 1021.95 1022.01 1022.01 1021.97 1021.92 1021.89 1021.90 1021.97 1022.11 1022.31 1022.55 1022.80 1023.03 1023.21 1023.30 1023.31 1023.23 1023.07 1022.85 1022.59 1022.31 1022.04 1021.79 1021.56 1021.36 1021.18 1021.00 1020.82 1020.61 1020.38 1020.09
1020.37 1020.60 1020.75 1020.88 1021.01 1021.15 1021.32 1021.52 1021.73 1021.93 1022.11 1022.24 1022.32 1022.34 1022.32 1022.26 1022.21 1022.17 1022.19 1022.26 1022.38 1022.56 1022.77 1022.99 1023.18 1023.32 1023.39 1023.38 1023.29 1023.13 1022.91 1022.65 1022.37 1022.09 1021.82 1021.57 1021.33 1021.11 1020.88 1020.65 1020.40 1020.11 1019.79
1021.04 1021.22 1021.35 1021.44 1021.54 1021.65 1021.79 1021.95 1022.12 1022.28 1022.41 1022.50 1022.55 1022.56 1022.53 1022.48 1022.43 1022.41 1022.43 1022.49 1022.60 1022.75 1022.93 1023.10 1023.25 1023.35 1023.39 1023.37 1023.27 1023.12 1022.91 1022.66 1022.39 1022.10 1021.82 1021.53 1021.25 1020.97 1020.69 1020.40 1020.09 1019.76 1019.39
1021.46 1021.62 1021.73 1021.81 1021.89 1021.98 1022.09 1022.22 1022.35 1022.48 1022.58 1022.65 1022.69 1022.69 1022.67 1022.63 1022.61 1022.60 1022.62 1022.69 1022.78 1022.90 1023.04 1023.16 1023.27 1023.34 1023.36 1023.33 1023.24 1023.09 1022.90 1022.67 1022.40 1022.11 1021.80 1021.48 1021.15 1020.81 1020.46 1020.11 1019.74 1019.35 1018.95
1021.69 1021.84 1021.94 1022.02 1022.10 1022.18 1022.28 1022.38 1022.49 1022.59 1022.68 1022.73 1022.76 1022.77 1022.76 1022.75 1022.75 1022.76 1022.79 1022.85 1022.93 1023.03 1023.13 1023.22 1023.30 1023.34 1023.35 1023.31 1023.24 1023.11 1022.94 1022.72 1022.46 1022.16 1021.82 1021.46 1021.06 1020.65 1020.23 1019.80 1019.37 1018.95 1018.52
1021.80 1021.96 1022.07 1022.16 1022.24 1022.32 1022.40 1022.49 1022.58 1022.66 1022.73 1022.78 1022.81 1022.82 1022.83 1022.84 1022.86 1022.90 1022.94 1023.01 1023.08 1023.16 1023.24 1023.31 1023.36 1023.40 1023.40 1023.38 1023.31 1023.21 1023.05 1022.84 1022.58 1022.26 1021.89 1021.47 1021.01 1020.52 1020.02 1019.52 1019.04 1018.57 1018.13
1021.86 1022.03 1022.16 1022.26 1022.34 1022.43 1022.51 1022.58 1022.65 1022.71 1022.76 1022.80 1022.83 1022.85 1022.88 1022.91 1022.95 1023.01 1023.08 1023.16 1023.24 1023.31 1023.39 1023.45 1023.50 1023.53 1023.54 1023.52 1023.47 1023.38 1023.24 1023.03 1022.76 1022.41 1021.99 1021.51 1020.98 1020.41 1019.84 1019.28 1018.74 1018.25 1017.80
1021.91 1022.09 1022.24 1022.35 1022.44 1022.53 1022.60 1022.66 1022.71 1022.74 1022.77 1022.80 1022.82 1022.85 1022.89 1022.95 1023.03 1023.11 1023.21 1023.31 1023.41 1023.50 1023.58 1023.65 1023.70 1023.74 1023.76 1023.75 1023.71 1023.62 1023.47 1023.26 1022.96 1022.57 1022.10 1021.56 1020.96 1020.33 1019.68 1019.06 1018.49 1017.97 1017.52
1021.97 1022.16 1022.31 1022.43 1022.53 1022.61 1022.66 1022.70 1022.73 1022.74 1022.75 1022.76 1022.78 1022.82 1022.88 1022.96 1023.07 1023.20 1023.34 1023.47 1023.61 1023.73 1023.83 1023.91 1023.97 1024.02 1024.03 1024.02 1023.97 1023.87 1023.70 1023.46 1023.12 1022.69 1022.17 1021.58 1020.92 1020.23 1019.54 1018.88 1018.27 1017.74 1017.30
1022.02 1022.21 1022.37 1022.49 1022.59 1022.65 1022.69 1022.71 1022.71 1022.69 1022.68 1022.68 1022.69 1022.74 1022.83 1022.95 1023.10 1023.27 1023.46 1023.65 1023.83 1023.98 1024.11 1024.22 1024.29 1024.33 1024.33 1024.30 1024.22 1024.09 1023.88 1023.59 1023.21 1022.74 1022.17 1021.53 1020.84 1020.12 1019.40 1018.72 1018.11 1017.58 1017.14
Thickness
5830 5830 5825 5821 5815 5810 5809 5803 5796 5791 5785 5778 5771 5764 5759 5755 5751 5746 5740 5735 5729 5724 5719 5714 5708 5704 5699 5693 5688 5683 5678 5674 5671 5667 5665 5667 5669 5667 5666 5665 5663 5661 5659
5813 5813 5812 5807 5805 5805 5802 5798 5793 5787 5781 5775 5770 5762 5755 5749 5745 5739 5733 5728 5722 5717 5713 5709 5704 5699 5694 5688 5683 5678 5672 5667 5664 5660 5657 5656 5657 5659 5661 5658 5655 5653 5650
5799 5799 5799 5798 5798 5795 5794 5793 5788 5782 5776 5770 5763 5755 5747 5740 5734 5728 5723 5719 5714 5709 5706 5702 5698 5693 5688 5682 5677 5672 5667 5661 5657 5655 5651 5646 5645 5647 5648 5647 5645 5643 5640
5785 5783 5784 5782 5781 5782 5784 5784 5780 5774 5767 5763 5756 5747 5739 5731 5726 5720 5714 5709 5705 5701 5697 5692 5688 5684 5680 5675 5670 5665 5661 5656 5650 5646 5642 5639 5635 5631 5631 5633 5633 5632 5629
5767 5765 5763 5763 5765 5768 5770 5771 5769 5763 5758 5753 5747 5739 5731 5724 5717 5710 5703 5698 5693 5689 5685 5680 5676 5672 5668 5664 5659 5655 5651 5646 5641 5636 5631 5627 5624 5621 5617 5616 5618 5617 5616
5749 5748 5747 5747 5748 5751 5753 5754 5752 5748 5744 5739 5734 5727 5719 5713 5705 5698 5691 5685 5680 5675 5671 5666 5663 5659 5656 5651 5647 5643 5639 5634 5629 5625 5621 5616 5612 5608 5605 5602 5601 5601 5602
5732 5729 5728 5728 5729 5731 5733 5735 5735 5730 5727 5723 5718 5713 5707 5700 5693 5686 5680 5674 5668 5662 5657 5654 5650 5646 5642 5638 5633 5630 5625 5621 5616 5612 5607 5603 5598 5595 5592 5588 5587 5586 5586
5715 5712 5710 5709 5710 5712 5713 5715 5714 5711 5709 5705 5701 5697 5692 5686 5679 5673 5668 5662 5655 5649 5644 5640 5636 5632 5628 5624 5620 5616 5611 5606 5602 5598 5593 5589 5585 5582 5578 5574 5571 5570 5570
5698 5695 5694 5693 5693 5693 5694 5695 5696 5693 5691 5688 5684 5680 5675 5670 5664 5658 5653 5647 5640 5635 5630 5626 5622 5617 5613 5609 5605 5601 5596 5591 5587 5583 5579 5574 5570 5567 5564 5560 5556 5552 5551
5681 5678 5677 5677 5677 5678 5679 5679 5678 5676 5674 5672 5668 5663 5658 5654 5648 5644 5638 5632 5626 5621 5616 5611 5606 5601 5597 5593 5590 5586 5581 5576 5572 5567 5564 5559 5555 5551 5547 5544 5541 5538 5535
5666 5664 5663 5663 5663 5664 5664 5663 5662 5660 5657 5654 5651 5647 5642 5637 5633 5627 5622 5616 5611 5605 5601 5595 5590 5586 5581 5577 5572 5568 5564 5559 5555 5550 5547 5543 5539 5535 5531 5528 5525 5522 5519
5653 5652 5652 5652 5651 5650 5650 5648 5646 5644 5640 5637 5634 5630 5625 5620 5615 5610 5604 5599 5594 5589 5584 5579 5574 5570 5565 5560 5555 5550 5546 5542 5538 5534 5530 5527 5523 5519 5515 5512 5509 5506 5503
5640 5640 5640 5639 5637 5636 5634 5631 5629 5627 5623 5620 5616 5611 5607 5602 5597 5591 5586 5581 5576 5572 5567 5562 5556 5551 5547 5542 5537 5532 5529 5525 5522 5518 5515 5511 5508 5504 5501 5496 5494 5491 5489
5628 5627 5625 5623 5621 5619 5616 5614 5611 5609 5605 5601 5596 5592 5587 5583 5578 5573 5568 5563 5558 5553 5549 5544 5539 5534 5529 5523 5517 5514 5511 5508 5506 5503 5500 5497 5494 5490 5487 5483 5481 5478 5475
5615 5613 5609 5607 5604 5601 5599 5596 5594 5590 5587 5582 5578 5573 5569 5565 5560 5554 5550 5545 5541 5536 5531 5526 5522 5516 5510 5503 5497 5494 5493 5490 5489 5488 5486 5484 5481 5478 5473 5470 5467 5463 5461
5601 5598 5595 5591 5588 5585 5582 5580 5577 5574 5570 5566 5561 5556 5552 5548 5543 5538 5533 5528 5523 5519 5514 5509 5504 5499 5492 5484 5479 5476 5474 5474 5474 5473 5472 5470 5469 5466 5462 5458 5455 5452 5450
5586 5582 5579 5576 5572 5569 5566 5564 5561 5558 5554 5550 5545 5541 5537 5532 5527 5522 5517 5512 5507 5502 5497 5493 5488 5481 5473 5467 5464 5461 5459 5460 5460 5459 5458 5457 5456 5452 5449 5447 5445 5445 5444
5573 5568 5565 5561 5557 5555 5552 5549 5547 5543 5539 5535 5531 5527 5522 5517 5512 5507 5502 5497 5491 5487 5482 5478 5473 5466 5458 5452 5449 5447 5447 5448 5447 5446 5445 5443 5441 5437 5434 5434 5435 5437 5438
5560 5556 5552 5549 5545 5542 5539 5536 5533 5530 5526 5522 5518 5513 5508 5503 5498 5493 5487 5482 5477 5473 5469 5463 5458 5452 5445 5439 5435 5432 5434 5435 5434 5433 5433 5431 5429 5424 5423 5424 5427 5430 5432
5547 5544 5540 5537 5534 5530 5527 5525 5522 5518 5514 5510 5505 5500 5495 5490 5484 5479 5474 5469 5464 5459 5455 5450 5445 5439 5433 5426 5422 5419 5421 5421 5421 5421 5421 5420 5418 5417 5416 5417 5420 5423 5427
5536 5534 5531 5527 5524 5521 5518 5514 5511 5506 5502 5497 5492 5487 5482 5477 5472 5466 5461 5456 5451 5446 5441 5437 5432 5427 5422 5416 5411 5409 5408 5408 5409 5411 5412 5413 5412 5412 5413 5414 5417 5421 5422
5527 5524 5522 5519 5515 5512 5509 5504 5500 5495 5491 5486 5480 5474 5469 5465 5460 5454 5448 5443 5438 5434 5430 5425 5421 5417 5412 5407 5404 5401 5400 5400 5402 5404 5406 5408 5409 5411 5414 5416 5420 5421 5423
5519 5517 5514 5510 5507 5503 5499 5494 5490 5485 5480 5475 5469 5463 5458 5453 5448 5443 5438 5434 5428 5424 5420 5416 5411 5407 5403 5400 5397 5396 5396 5397 5398 5401 5403 5406 5409 5412 5416 5419 5421 5423 5425
5514 5511 5507 5503 5499 5495 5490 5486 5481 5476 5470 5465 5459 5455 5449 5443 5439 5434 5430 5425 5419 5414 5410 5406 5402 5398 5396 5392 5390 5390 5392 5394 5397 5399 5402 5406 5410 5414 5417 5420 5424 5426 5427
5509 5505 5501 5496 5492 5488 5483 5479 5474 5469 5463 5458 5453 5449 5444 5438 5433 5426 5418 5414 5405 5400 5396 5394 5392 5390 5388 5383 5382 5383 5387 5389 5393 5395 5401 5407 5411 5415 5419 5422 5425 5428 5430
5503 5499 5495 5491 5486 5482 5478 5473 5468 5463 5457 5452 5448 5444 5440 5435 5431 5423 5414 5405 5400 5394 5389 5385 5382 5384 5381 5382 5383 5386 5388 5391 5394 5397 5402 5406 5411 5414 5418 5422 5426 5429 5431